Location: Arcueil
(48.7999°N, 2.3326°E)
Time: 09:22:02
(UTC+00:00)

CZ-4 R/B - Pass Details

Date: 29 September 2023
Orbit: 521 x 578 km, 97.7° (Epoch: 07 December)

Event Time Altitude Azimuth Distance (km) Brightness Sun altitude
Rises 18:01:30 0° 132° (SE) 2,671 4.4 -5.3°
Reaches altitude 10° 18:03:56 10° 117° (ESE) 1,777 3.4 -5.7°
Drops below altitude 10° 18:09:57 10° 13° (NNE) 1,774 3.8 -6.7°
Enters shadow 19:16:46 -45° 171° (S) 9,752 7.6 -17.5°
Maximum altitude 19:41:32 34° 263° (W) 887 2.8 -21.3°
